Regional Weather Roundup
Issued by NWS

Home | Current Version | Previous Version | Graphics & Text | Print | Product List | Glossary Off
Versions: 1 2 3 4 5 6 7 8 9 10 11 12 13 14 15 16 17 18 19 20 21 22 23 24 25 26 27 28 29 30 31 32 33 34 35 36 37 38 39 40 41 42 43 44 45 46 47 48 49 50

000
ASUS43 KMKX 181421
RWRWI

WISCONSIN REGIONAL WEATHER ROUNDUP
NATIONAL WEATHER SERVICE MILWAUKEE/SULLIVAN WI
800 AM CST WED JAN 18 2017

NOTE: "FAIR" INDICATES FEW OR NO CLOUDS BELOW 12,000 FEET WITH NO
SIGNIFICANT WEATHER AND/OR OBSTRUCTIONS TO VISIBILITY.

WIZ001-002-006>008-014>016-023>028-181500-
NORTHWEST WISCONSIN

CITY           SKY/WX    TMP DP  RH WIND       PRES   REMARKS
SUPERIOR ARPT  PTCLDY    28  25  87 SW9       29.82R WCI  19
ASHLAND          N/A     32  24  72 SW21      29.81S WCI  20
HAYWARD        CLOUDY    28  23  81 S12       29.87R WCI  18
SIREN          CLOUDY    28  25  87 S3        29.89R
CUMBERLAND     CLOUDY    27  23  86 SW9       29.90R WCI  17
RICE LAKE      CLOUDY    27  25  94 S6        29.92F WCI  20
CHETEK         CLOUDY    27  25  94 S10       29.91F WCI  17
LADYSMITH      CLOUDY    28  28  96 S9        29.92F WCI  20
EAU CLAIRE     CLOUDY    26  25  96 S8        29.95F WCI  18
MENOMONIE      CLOUDY    28  26  91 MISG      29.95F
NEW RICHMOND   CLOUDY    28  26  91 S14       29.90F WCI  17
OSCEOLA        CLOUDY    28  28 100 S8        29.94S WCI  20
$$

WIZ003>005-009-010-017-018-181500-
NORTH CENTRAL WISCONSIN

CITY           SKY/WX    TMP DP  RH WIND       PRES   REMARKS
MANITOWISH WTR CLOUDY    26  26 100 S9        29.83F WCI  17
ARBOR VITAE    CLOUDY    29  28  95 S9        29.84F FOG     WCI  21
WOODRUFF       CLOUDY    29  28  95 S9        29.84F FOG     WCI  21
RHINELANDER    CLOUDY    29  28  96 SW9G18    29.89F WCI  20
EAGLE RIVER    CLOUDY    27  27 100 SW5       29.84F WCI  22
LAND O LAKES   CLOUDY    27  26  99 S6        29.85F WCI  20
PHILLIPS       CLOUDY   N/A N/A N/A SW8       29.87F
TOMAHAWK       CLOUDY    27  26  96 S5        29.91F FOG     WCI  22
MEDFORD        CLOUDY    28  27  96 SW9       29.93S FOG     WCI  19
MERRILL        CLOUDY    29  29 100 CALM        N/A
$$

WIZ029-030-035-036-043>047-181500-
CENTRAL WISCONSIN

CITY           SKY/WX    TMP DP  RH WIND       PRES   REMARKS
WAUSAU         CLOUDY    29  28  96 SW13      29.95F WCI  19
MOSINEE        CLOUDY    28  28 100 SW13      29.97F FOG     WCI  18
MARSHFIELD     CLOUDY    29  27  92 SW13G22   29.96F FOG     WCI  19
STEVENS POINT  CLOUDY    29  29 100 SW8       29.99F FOG     WCI  21
WAUPACA        CLOUDY    34  33  96 SW12      30.01F FOG     WCI  25
WAUTOMA        CLOUDY   N/A N/A N/A SW10      30.03F
WISC RAPIDS    CLOUDY    31  31 100 SW9       30.01F WCI  23
CAMP DOUGLAS   MOCLDY    32  28  86 SW6       30.03S WCI  26
$$

WIZ011>013-019>022-031-037>040-048>050-181500-
NORTHEAST WISCONSIN

CITY           SKY/WX    TMP DP  RH WIND       PRES   REMARKS
ANTIGO         CLOUDY    28  28 100 SW8       29.94R FOG     WCI  20
SHAWANO        CLOUDY    34  33  95 SW7G16    29.98F FOG     WCI  28
OCONTO         CLOUDY    32  32  99 SW9       29.98S WCI  24
STURGEON BAY   FOG       32  31  96 SW10      29.98S VSB 1/2 WCI  24
GREEN BAY      CLOUDY    34  34 100 SW9       30.01S FOG     WCI  27
MANITOWOC      CLOUDY    33  31  92 SW13      30.02S FOG     WCI  24
APPLETON       FOG       32  32 100 SW14      30.00R VSB 1/4 WCI  22
CLINTONVILLE   CLOUDY    32  32 100 SW13      29.99F FOG     WCI  22
OSHKOSH        FOG       32  32 100 SW8       30.03S VSB 3/4 WCI  25
$$

WIZ032>034-041-042-053>061-181500-
SOUTHWEST WISCONSIN

CITY           SKY/WX    TMP DP  RH WIND       PRES   REMARKS
LA CROSSE      CLOUDY    33  28  81 S13       30.04F WCI  24
SPARTA         CLOUDY    30  29  95 SW8       30.05S WCI  23
VIROQUA        CLOUDY    29  29 100 SW8       30.03F WCI  21
BOSCOBEL       CLOUDY    33  30  88 SW5       30.09F WCI  29
PRAIRIE DU CHI CLOUDY    32  29  88 S5        30.09S WCI  27
PLATTEVILLE    CLOUDY    31  31 100 SW9       30.11R WCI  23
$$

WIZ056-057-062-063-064-067-068-181500-
SOUTH CENTRAL WISCONSIN

CITY           SKY/WX    TMP DP  RH WIND       PRES   REMARKS
REEDSBURG      NOT AVBL
BARABOO/DELLS  CLOUDY    31  31  99 SW10      30.04F WCI  23
LONE ROCK      CLOUDY    33  30  88 SW8       30.09S WCI  26
MINERAL POINT  CLOUDY    32  32 100 SW8       30.08S FOG     WCI  25
MADISON        CLOUDY    32  31  96 VRB7      30.08S FOG     WCI  26
MIDDLETON      CLOUDY    33  33 100 SW10G16   30.08S WCI  25
WATERTOWN      CLOUDY    32  32 100 W7        30.07S FOG     WCI  25
MONROE         FOG       32  32 100 W10       30.09S VSB 1/4 WCI  24
JANESVILLE     CLOUDY    34  34 100 W10       30.11R FOG     WCI  26
$$

WIZ051-052-058>065-066-070>072-181500-
SOUTHEAST WISCONSIN

CITY           SKY/WX    TMP DP  RH WIND       PRES   REMARKS
MILWAUKEE      CLOUDY    36  32  85 W13       30.08R WCI  27
WAUKESHA       FOG       32  30  93 SW8       30.08R VSB 1/2 WCI  25
MILWAUKEE/TIMM CLOUDY    34  30  86 SW10      30.08R FOG     WCI  26
RACINE         CLOUDY    35  32  88 W13       30.11R WCI  26
KENOSHA        CLOUDY    34  32  92 W10       30.10R FOG     WCI  26
FOND DU LAC    CLOUDY    33  30  88 SW9       30.04S FOG     WCI  25
SHEBOYGAN      CLOUDY    33  31  92 W10       30.03F FOG     WCI  25
WEST BEND      FOG       32  32 100 SW8       30.04F VSB 1/2 WCI  25
JUNEAU         FOG       31  31  99 SW15      30.07S VSB 1/4 WCI  21
$$

LSZ147-162-181500-
LAKE SUPERIOR

STATION/POSITION TIME  TEMP    WIND        PRES    WAVE
                       AIR SEA DIR/SP/G            HT/PER
                 (UTC) (F)     (DEG/KT/KT) (MB)    (FT/S)
DEVILS ISLAND    1400   33     240/ 18/ 21 1010.0R
PORT WING        1340   31     220/  8/ 13 1009.5S
SAXON HARBOR     1340   35     200/ 12/ 23 1008.8S
$$

LMZ867-665-643>646-181500-
LAKE MICHIGAN

STATION/POSITION TIME  TEMP    WIND        PRES    WAVE
                       AIR SEA DIR/SP/G            HT/PER
                 (UTC) (F)     (DEG/KT/KT) (MB)    (FT/S)
NORTHPORT PIER   1400   31     240/  5/ 13 1014.6
SISTER BAY       1320   31     230/ 10/ 12   N/A
ALGOMA LAKESHORE 1254          260/ 10/ 12   N/A
KEWAUNEE LAKESHO 1354   32     240/  6/  9 1015.5F
SHEBOYGAN LAKESH 1400   33     240/ 12/ 14 1017.4F
PORT WASHINGTON  1340   35     260/  6/ 15 1018.6R
MILWAUKEE LAKESH 1400   35     260/ 10/ 12   N/A
KENOSHA   LAKESH 1400   35     260/ 12/ 16 1019.6
$$

TC  - TEMPERATURE IN CELSIUS
VSB - VISIBILITY IN STATUTE MILES
WCI - WIND CHILL INDEX
HX  - HEAT INDEX





USA.gov is the U.S. government's official web portal to all federal, state and local government web resources and services.